Regional Weather Roundup
Issued by NWS Albany, NY

Home | Current Version | Previous Version | Graphics & Text | Print | Product List | Glossary Off
Versions: 1 2 3 4 5 6 7 8 9 10 11 12 13 14 15 16 17 18 19 20 21 22 23 24 25 26 27 28 29 30 31 32 33 34 35 36 37 38 39 40 41 42 43 44 45 46 47 48 49 50

000
ASUS41 KALY 232110
RWRALY

NEW YORK STATE HOURLY WEATHER ROUNDUP
NATIONAL WEATHER SERVICE ALBANY NY
500 PM EDT SUN APR 23 2017

NOTE: "FAIR" INDICATES FEW OR NO CLOUDS BELOW 12,000 FEET WITH NO
SIGNIFICANT WEATHER AND/OR NO OBSTRUCTIONS TO VISIBILITY.

NYZ032-033-038>043-046>054-057>066-NYZ062>081-082-084-232200-
EAST


CITY           SKY/WX    TMP DP  RH WIND       PRES   REMARKS
ALBANY         MOSUNNY   69  31  24 CALM      30.00F
GLENS FALLS    SUNNY     67  36  31 S12       29.97F
POUGHKEEPSIE   SUNNY     67  35  30 SW5       30.01F
NEWBURGH       MOSUNNY   66  32  28 SW8       30.03F
MONTGOMERY     SUNNY     68  31  25 SE7       30.01F
WHITE PLAINS   MOSUNNY   61  36  39 S9        30.05R
ISLIP          PTSUNNY   53  40  61 S10       30.09R
NEW YORK CITY  CLOUDY    60  40  47 S13       30.06S
CENTRAL PARK   CLOUDY    62  36  37 S9        30.08S
$$

NYZ005>009-017-018-044>046-055-056-232200-
CENTRAL


CITY           SKY/WX    TMP DP  RH WIND       PRES   REMARKS
FULTON         SUNNY     65  36  34 VRB5      30.03S
SYRACUSE       MOSUNNY   65  34  31 W9        30.01F
ROME           SUNNY     64  33  31 W9        30.02F
ELMIRA         SUNNY     69  25  19 SW8       30.01S
BINGHAMTON     SUNNY     64  25  22 NW5       30.02F
MONTICELLO     SUNNY     66  27  22 S5        30.04S
$$

NYZ026>034-041>043-087-232200-
NORTH


CITY           SKY/WX    TMP DP  RH WIND       PRES   REMARKS
WATERTOWN      SUNNY     57  36  45 W12       30.03S
FORT DRUM      NOT AVBL
OGDENSBURG     FAIR      63  32  31 SW16G29   29.98R
MASSENA        SUNNY     64  34  32 SW21G26   29.95S
SARANAC LAKE   SUNNY     63  26  24 SW9G20    29.95F
PLATTSBURGH    SUNNY     62  35  36 S12G21    29.92F
$$

NYZ001>004-010>016-019>021-085-232200-
WEST


CITY           SKY/WX    TMP DP  RH WIND       PRES   REMARKS
NIAGARA FALLS  SUNNY     65  31  28 SW12      30.04S
BUFFALO        MOSUNNY   61  27  27 SW12      30.05S
DUNKIRK        SUNNY     57  31  37 W6        30.06F
JAMESTOWN      SUNNY     63  34  34 NW9       30.04F
WELLSVILLE     SUNNY     67  14  13 VRB3      30.03F
ROCHESTER      SUNNY     67  28  23 W10G17    30.03S
PENN YAN       SUNNY     65  32  29 VRB5      30.03S
$$

             KEY
       WCI = WIND CHILL INDEX
       VSB = VISIBILITY
       HX  = HEAT INDEX
$$



USA.gov is the U.S. government's official web portal to all federal, state and local government web resources and services.